Location: Juzet
(42.9779°N, 0.7597°E)
Time: 17:40:10
(UTC+00:00)

Cosmos 1980 Rocket - Pass Details

Date: 14 July 2020
Orbit: 828 x 851 km, 71.0° (Epoch: 13 August)

Event Time Altitude Azimuth Distance (km) Brightness Sun altitude
Rises 01:40:25 0° 342° (NNW) 3,427 6.1 -21.6°
Reaches altitude 10° 01:43:09 10° 352° (N) 2,487 5.4 -21.4°
Maximum altitude 01:48:15 33° 55° (NE) 1,404 3.9 -21.0°
Drops below altitude 10° 01:53:19 10° 119° (ESE) 2,467 4.6 -20.6°
Sets 01:56:00 0° 129° (SE) 3,395 5.2 -20.3°
